Maryland Science Center, MD

1:56 PM EDT on June 27, 2017 (GMT -0400)
Maryland Science Center

Weather History for KDMH - November, 2013

Change the Weather History Date:

Wednesday, November 20, 2013

  Actual Average Record
Temperature  
Mean Temperature 43 °F 49 °F  
Max Temperature 48 °F 56 °F 72 °F (1999)
Min Temperature 38 °F 42 °F 30 °F (2000)
Degree Days  
Heating Degree Days 22 16  
Month to date heating degree days 262 258  
Since 1 July heating degree days 389 467  
Cooling Degree Days 0 0  
Month to date cooling degree days 4 0  
Year to date cooling degree days 2023 1664  
Moisture  
Dew Point 22 °F    
Average Humidity 42    
Maximum Humidity 57    
Minimum Humidity 26    
Precipitation  
Precipitation 0.00 in 0.09 in 0.23 in (2004)
Month to date precipitation 0.44 1.94  
Year to date precipitation 34.78 36.45  
Sea Level Pressure  
Sea Level Pressure 30.52 in    
Wind  
Wind Speed - (North)    
Max Wind Speed -    
Max Gust Speed -    
T = Trace of Precipitation, MM = Missing Value Source: NWS Daily Summary

Daily Weather History Graph

Daily Weather History Graph

Search for Another Location

Airport or City:

Trip Planner

Search our weather history database for the weather conditions in past years. The results will help you decide how hot, cold, wet, or windy it might be!

Date:

Astronomy

Nov. 20, 2013 Rise Set
Actual Time 6:55 AM EST 4:48 PM EST
Civil Twilight 6:26 AM EST 5:17 PM EST
Nautical Twilight 5:54 AM EST 5:49 PM EST
Astronomical Twilight 5:22 AM EST 6:21 PM EST
Moon 7:29 PM EST (11/20) 9:19 AM EST (11/20)
Length of Visible Light 10h 50m
Length of Day
9h 52m
Waning Gibbous, 91% of the Moon is Illuminated
Nov 20
Waning Gibbous
Nov 25
Last Quarter
Dec 2
New
Dec 9
First Quarter
Dec 17
Full

Hourly Weather History & Observations

Time (EST) Temp. Dew Point Humidity Pressure Visibility Wind Dir Wind Speed Gust Speed Precip Events Conditions
12:54 AM 41.0 °F 21.9 °F 47% 30.38 in - North - - N/A   Unknown
1:54 AM 41.0 °F 21.0 °F 45% 30.41 in - North - - N/A   Unknown
2:54 AM 39.9 °F 21.9 °F 49% 30.42 in - North - - N/A   Unknown
3:54 AM 39.9 °F 21.0 °F 47% 30.44 in - North - - N/A   Unknown
4:54 AM 39.0 °F 21.0 °F 49% 30.47 in - North - - N/A   Unknown
5:54 AM 37.9 °F 21.0 °F 51% 30.49 in - North - - N/A   Unknown
6:54 AM 37.9 °F 21.9 °F 53% 30.51 in - North - - N/A   Unknown
7:54 AM 37.9 °F 21.9 °F 53% 30.53 in - North - - N/A   Unknown
8:54 AM 37.9 °F 21.9 °F 53% 30.55 in - North - - N/A   Unknown
9:54 AM 39.0 °F 21.9 °F 50% 30.57 in - North - - N/A   Unknown
10:54 AM 42.1 °F 21.0 °F 43% 30.58 in - North - - N/A   Unknown
11:54 AM 42.1 °F 19.9 °F 41% 30.56 in - North - - N/A   Unknown
12:54 PM 46.9 °F 19.0 °F 33% 30.55 in - North - - N/A   Unknown
1:54 PM 46.9 °F 17.1 °F 30% 30.52 in - North - - N/A   Unknown
2:54 PM 46.0 °F 14.0 °F 28% 30.52 in - North - - N/A   Unknown
3:54 PM 45.0 °F 17.1 °F 33% 30.53 in - North - - N/A   Unknown
4:54 PM 45.0 °F 17.1 °F 33% 30.53 in - North - - N/A   Unknown
5:54 PM 45.0 °F 19.0 °F 36% 30.54 in - North - - N/A   Unknown
6:54 PM 44.1 °F 21.0 °F 40% 30.55 in - North - - N/A   Unknown
7:54 PM 43.0 °F 26.1 °F 51% 30.55 in - North - - N/A   Unknown
8:54 PM 44.1 °F 27.0 °F 51% 30.56 in - North - - N/A   Unknown
9:54 PM 43.0 °F 28.0 °F 56% 30.57 in - North - - N/A   Unknown
10:54 PM 42.1 °F 28.0 °F 58% 30.58 in - North - - N/A   Unknown
11:54 PM 41.0 °F 28.0 °F 60% 30.57 in - North - - N/A   Unknown